User: anonymous   Login
Location: Newark
(41.9000°N, 12.4833°E)
Time: 00:56:41
(UTC+00:00)
Language:

AO-91 - Orbit

View from above orbital plane
View from above orbital plane
View from above satellite
View from above satellite

Ground track
Ground track

The orbit data is extracted from the following two-line orbital elements,

1 43017U 17073E   19140.29394317  .00000318  00000-0  30975-4 0  9996
2 43017  97.7237  62.8020 0256833 254.0903 103.1870 14.78526525 80913
Epoch (UTC): 20 May 2019 07:03:16
Eccentricity: 0.0256833
inclination: 97.7237°
perigee height: 454 km
apogee height: 814 km
right ascension of ascending node: 62.8020°
argument of perigee: 254.0903°
revolutions per day: 14.78526525
mean anomaly at epoch: 103.1870°
orbit number at epoch: 8091

The dashed part of the orbit path shows where the satellite is in the earth's shadow,  

DLR